When you browse on this site, cookies collect data to enhance your experience and personalize the content and advertising you see.
Visit our Privacy Policy to learn more. By continuing to use the site, you agree to this use of cookies and data.
  • In Czech Republic
  • List of Countries
  • For 7 days
  • Water Temperature
  • Weather Map
  • Weather Widgets
  • user-avatar
    Login

    Hourly Weather La Courneuve

    Today, 27 May, Wednesday

    Time Temperature Precipitation Wind Pressure Humidity
    00:00 +16°C° 0 mm 3 mps 770 mmHg 75%
    01:00 +16°C° 0 mm 3 mps 770 mmHg 76%
    02:00 +14°C° 0 mm 3 mps 770 mmHg 76%
    03:00 +14°C° 0 mm 2 mps 770 mmHg 76%
    04:00 +15°C° 0 mm 2 mps 770 mmHg 74%
    05:00 +15°C° 0 mm 2 mps 770 mmHg 72%
    06:00 +16°C° 0 mm 1 mps 771 mmHg 69%
    07:00 +18°C° 0 mm 2 mps 771 mmHg 63%
    08:00 +20°C° 0 mm 2 mps 771 mmHg 57%
    09:00 +21°C° 0 mm 2 mps 771 mmHg 52%
    10:00 +22°C° 0 mm 3 mps 770 mmHg 49%
    11:00 +24°C° 0 mm 3 mps 770 mmHg 47%
    12:00 +26°C° 0 mm 3 mps 770 mmHg 45%
    13:00 +26°C° 0 mm 3 mps 770 mmHg 46%
    14:00 +26°C° 0 mm 4 mps 770 mmHg 48%
    15:00 +26°C° 0 mm 4 mps 770 mmHg 50%
    16:00 +25°C° 0 mm 4 mps 769 mmHg 54%
    17:00 +25°C° 0 mm 4 mps 769 mmHg 58%
    18:00 +24°C° 0 mm 3 mps 769 mmHg 61%
    19:00 +21°C° 0 mm 4 mps 769 mmHg 64%
    20:00 +20°C° 0 mm 4 mps 770 mmHg 67%
    21:00 +18°C° 0 mm 4 mps 770 mmHg 70%
    22:00 +17°C° 0 mm 4 mps 770 mmHg 67%
    23:00 +15°C° 0 mm 4 mps 770 mmHg 65%

    Tomorrow, 28 May, Thursday

    Time Temperature Precipitation Wind Pressure Humidity
    00:00 +14°C° 0 mm 4 mps 770 mmHg 62%
    01:00 +13°C° 0 mm 3 mps 769 mmHg 65%
    02:00 +12°C° 0 mm 3 mps 769 mmHg 67%
    03:00 +11°C° 0 mm 3 mps 769 mmHg 70%
    04:00 +12°C° 0 mm 3 mps 769 mmHg 73%
    05:00 +12°C° 0 mm 4 mps 769 mmHg 76%
    06:00 +13°C° 0 mm 4 mps 769 mmHg 78%
    07:00 +14°C° 0 mm 4 mps 769 mmHg 73%
    08:00 +17°C° 0 mm 4 mps 769 mmHg 68%
    09:00 +19°C° 0 mm 4 mps 769 mmHg 63%
    10:00 +20°C° 0 mm 4 mps 769 mmHg 57%
    11:00 +21°C° 0 mm 5 mps 768 mmHg 51%
    12:00 +22°C° 0 mm 5 mps 768 mmHg 45%
    13:00 +22°C° 0 mm 5 mps 767 mmHg 45%
    14:00 +22°C° 0 mm 5 mps 767 mmHg 45%
    15:00 +22°C° 0 mm 5 mps 767 mmHg 45%
    16:00 +22°C° 0 mm 5 mps 766 mmHg 49%
    17:00 +21°C° 0 mm 4 mps 766 mmHg 53%
    18:00 +20°C° 0 mm 4 mps 766 mmHg 58%
    19:00 +19°C° 0 mm 4 mps 766 mmHg 60%
    20:00 +18°C° 0 mm 4 mps 766 mmHg 62%
    21:00 +15°C° 0 mm 4 mps 766 mmHg 65%
    22:00 +14°C° 0 mm 4 mps 766 mmHg 65%
    23:00 +14°C° 0 mm 4 mps 766 mmHg 65%

    Day after tomorrow, 29 May, Friday

    Time Temperature Precipitation Wind Pressure Humidity
    00:00 +13°C° 0 mm 4 mps 766 mmHg 65%
    01:00 +12°C° 0 mm 4 mps 766 mmHg 67%
    02:00 +12°C° 0 mm 4 mps 766 mmHg 68%
    03:00 +11°C° 0 mm 3 mps 766 mmHg 69%
    04:00 +11°C° 0 mm 3 mps 766 mmHg 68%
    05:00 +12°C° 0 mm 3 mps 765 mmHg 67%
    06:00 +12°C° 0 mm 4 mps 765 mmHg 66%
    07:00 +14°C° 0 mm 4 mps 765 mmHg 61%
    08:00 +17°C° 0 mm 4 mps 765 mmHg 57%
    09:00 +19°C° 0 mm 4 mps 765 mmHg 52%
    10:00 +19°C° 0 mm 5 mps 765 mmHg 49%
    11:00 +20°C° 0 mm 5 mps 765 mmHg 47%
    12:00 +21°C° 0 mm 5 mps 764 mmHg 44%
    13:00 +22°C° 0 mm 5 mps 764 mmHg 45%
    14:00 +22°C° 0 mm 5 mps 763 mmHg 45%
    15:00 +22°C° 0 mm 5 mps 763 mmHg 45%
    16:00 +22°C° 0 mm 4 mps 763 mmHg 49%
    17:00 +21°C° 0 mm 4 mps 762 mmHg 53%
    18:00 +21°C° 0 mm 3 mps 762 mmHg 56%
    19:00 +19°C° 0 mm 3 mps 762 mmHg 61%
    20:00 +18°C° 0 mm 3 mps 762 mmHg 65%
    21:00 +16°C° 0 mm 3 mps 763 mmHg 69%
    22:00 +16°C° 0 mm 3 mps 763 mmHg 69%
    23:00 +14°C° 0 mm 3 mps 762 mmHg 70%

    30 May, Saturday

    Time Temperature Precipitation Wind Pressure Humidity
    00:00 +13°C° 0 mm 3 mps 762 mmHg 70%
    01:00 +13°C° 0 mm 3 mps 762 mmHg 71%
    02:00 +12°C° 0 mm 3 mps 762 mmHg 71%
    03:00 +12°C° 0 mm 2 mps 762 mmHg 72%
    04:00 +12°C° 0 mm 3 mps 762 mmHg 69%
    05:00 +12°C° 0 mm 3 mps 762 mmHg 65%
    06:00 +13°C° 0 mm 3 mps 762 mmHg 62%
    07:00 +16°C° 0 mm 3 mps 762 mmHg 57%
    08:00 +17°C° 0 mm 4 mps 762 mmHg 52%
    09:00 +19°C° 0 mm 4 mps 762 mmHg 47%
    10:00 +20°C° 0 mm 4 mps 762 mmHg 46%
    11:00 +21°C° 0 mm 4 mps 762 mmHg 44%
    12:00 +22°C° 0 mm 4 mps 762 mmHg 43%
    13:00 +22°C° 0 mm 5 mps 762 mmHg 44%
    14:00 +22°C° 0 mm 5 mps 761 mmHg 44%
    15:00 +22°C° 0 mm 5 mps 761 mmHg 45%
    16:00 +22°C° 0 mm 4 mps 761 mmHg 49%
    17:00 +21°C° 0 mm 4 mps 761 mmHg 52%
    18:00 +20°C° 0 mm 4 mps 760 mmHg 56%
    19:00 +19°C° 0 mm 3 mps 761 mmHg 58%
    20:00 +18°C° 0 mm 3 mps 761 mmHg 61%
    21:00 +16°C° 0 mm 3 mps 761 mmHg 63%
    22:00 +16°C° 0 mm 3 mps 761 mmHg 66%
    23:00 +14°C° 0 mm 3 mps 761 mmHg 69%

    31 May, Sunday

    Time Temperature Precipitation Wind Pressure Humidity
    00:00 +13°C° 0 mm 3 mps 761 mmHg 71%
    01:00 +13°C° 0 mm 3 mps 761 mmHg 72%
    02:00 +13°C° 0 mm 2 mps 761 mmHg 72%
    03:00 +13°C° 0 mm 2 mps 761 mmHg 72%
    04:00 +13°C° 0 mm 2 mps 761 mmHg 70%
    05:00 +14°C° 0 mm 2 mps 761 mmHg 68%
    06:00 +14°C° 0 mm 2 mps 761 mmHg 65%
    07:00 +16°C° 0 mm 3 mps 761 mmHg 60%
    08:00 +18°C° 0 mm 3 mps 762 mmHg 56%
    09:00 +20°C° 0 mm 4 mps 762 mmHg 51%
    10:00 +21°C° 0 mm 4 mps 762 mmHg 49%
    11:00 +21°C° 0 mm 4 mps 761 mmHg 47%
    12:00 +22°C° 0 mm 4 mps 761 mmHg 45%
    13:00 +22°C° 0 mm 4 mps 761 mmHg 46%
    14:00 +22°C° 0 mm 4 mps 761 mmHg 47%
    15:00 +22°C° 0 mm 4 mps 760 mmHg 48%
    16:00 +22°C° 0 mm 4 mps 760 mmHg 51%
    17:00 +21°C° 0 mm 4 mps 760 mmHg 55%
    18:00 +20°C° 0 mm 3 mps 760 mmHg 58%
    19:00 +19°C° 0 mm 3 mps 760 mmHg 62%
    20:00 +18°C° 0 mm 3 mps 760 mmHg 65%
    21:00 +16°C° 0 mm 2 mps 760 mmHg 69%
    22:00 +16°C° 0 mm 2 mps 760 mmHg 72%
    23:00 +15°C° 0 mm 2 mps 760 mmHg 75%

    1 June, Monday

    Time Temperature Precipitation Wind Pressure Humidity
    00:00 +15°C° 0 mm 2 mps 760 mmHg 77%
    01:00 +14°C° 0 mm 2 mps 760 mmHg 78%
    02:00 +14°C° 0 mm 2 mps 760 mmHg 79%
    03:00 +13°C° 0 mm 2 mps 760 mmHg 80%
    04:00 +14°C° 0 mm 2 mps 760 mmHg 77%
    05:00 +14°C° 0 mm 2 mps 760 mmHg 75%
    06:00 +15°C° 0 mm 2 mps 760 mmHg 72%
    07:00 +17°C° 0 mm 2 mps 760 mmHg 67%
    08:00 +19°C° 0 mm 3 mps 760 mmHg 61%
    09:00 +20°C° 0 mm 3 mps 760 mmHg 56%
    10:00 +21°C° 0 mm 3 mps 759 mmHg 54%
    11:00 +22°C° 0 mm 3 mps 759 mmHg 51%
    12:00 +23°C° 0 mm 4 mps 759 mmHg 49%
    13:00 +23°C° 0 mm 4 mps 759 mmHg 50%
    14:00 +23°C° 0 mm 4 mps 758 mmHg 52%
    15:00 +23°C° 0 mm 4 mps 758 mmHg 53%
    16:00 +22°C° 0 mm 4 mps 758 mmHg 57%
    17:00 +22°C° 0 mm 3 mps 758 mmHg 60%
    18:00 +21°C° 0 mm 3 mps 757 mmHg 63%
    19:00 +20°C° 0 mm 3 mps 758 mmHg 67%
    20:00 +19°C° 0 mm 3 mps 758 mmHg 71%
    21:00 +18°C° 0 mm 2 mps 758 mmHg 75%
    22:00 +17°C° 0 mm 3 mps 758 mmHg 78%
    23:00 +16°C° 0 mm 3 mps 757 mmHg 81%
    Show more